User: anonymous   Login
Location: Houston
(29.7630°N, 95.3630°W)
Time: 03:43:27
(UTC-06:00)
Language:

Saudisat 1A - Orbit

View from above orbital plane
View from above orbital plane
View from above satellite
View from above satellite

Ground track
Ground track

The orbit data is extracted from the following two-line orbital elements,

1 26546U 00057B   18022.94448458 +.00000086 +00000-0 +24539-4 0  9995
2 26546 064.5551 007.4068 0007466 236.2673 123.7726 14.90672619939394
Epoch (UTC): 22 January 2018 22:40:03
Eccentricity: 0.0007466
inclination: 64.5551°
perigee height: 590 km
apogee height: 601 km
right ascension of ascending node: 7.4068°
argument of perigee: 236.2673°
revolutions per day: 14.90672619
mean anomaly at epoch: 123.7726°
orbit number at epoch: 93939

The dashed part of the orbit path shows where the satellite is in the earth's shadow,  

DLR